Regional Weather Roundup
Issued by NWS Newport/Morehead, NC

Current Version | Previous Version | Text Only | Print | Product List | Glossary On
Versions: 1 2 3 4 5 6 7 8 9 10 11 12 13 14 15 16 17 18 19 20 21 22 23 24 25 26 27 28 29 30 31 32 33 34 35 36 37 38 39 40 41 42 43 44 45 46 47 48 49 50
000
ASUS42 KMHX 271913
RWRMHX
WEATHER ROUNDUP FOR EASTERN NORTH CAROLINA
NATIONAL WEATHER SERVICE NEWPORT/MOREHEAD CITY NC
300 PM EDT TUE JUN 27 2017

NOTE: "FAIR" INDICATES FEW OR NO CLOUDS BELOW 12,000 FEET
WITH NO SIGNIFICANT WEATHER AND/OR OBSTRUCTIONS TO VISIBILITY

NCZ015>017-031-032-045>047-102-103-272000-
NORTH COAST

CITY           SKY/WX    TMP DP  RH WIND       PRES   REMARKS
EDENTON        MOSUNNY   84  61  45 CALM      30.01S
ELIZABETH CITY MOSUNNY   83  63  50 NE3       30.00S
KITTY HAWK     PTCLDY    83  63  49 E7        29.99S
MANTEO         PTSUNNY   80  62  54 S3        30.01S

$$

NCZ045>047-081-094-103-104-272000-
CENTRAL COAST

CITY           SKY/WX    TMP DP  RH WIND       PRES   REMARKS
FRISCO         NOT AVBL

$$

NCZ095-097-098-100-101-272000-
SOUTHERN COAST

CITY           SKY/WX    TMP DP  RH WIND       PRES   REMARKS
BEAUFORT       MOSUNNY   83  65  54 SW8       30.01F
CEDAR ISLAND   NOT AVBL
JACKSONVILLE   NOT AVBL
PINEY ISLAND   MOCLDY   N/A N/A N/A VRB3      30.01S
WILMINGTON     CLOUDY    87  58  37 E6        30.01F


$$

NCZ011>013-027>030-043-044-078>080-089-090>093-098-272000-
COASTAL PLAIN

CITY           SKY/WX    TMP DP  RH WIND       PRES   REMARKS
AHOSKIE          N/A     80  57  44 CALM      30.01F
CLINTON        MOSUNNY   83  61  46 W3        30.04S
ELIZABETHTOWN  NOT AVBL
GOLDSBORO      MOSUNNY   83  55  38 CALM      30.01F
GREENVILLE     PTSUNNY   82  57  42 CALM      30.04F
HAVELOCK       NOT AVBL
KENANSVILLE    PTSUNNY   84  63  48 NW8       30.03F
KINSTON        PTSUNNY   82  57  42 N6        30.04S
NEW BERN       PTSUNNY   84  61  45 E3        30.02S
RICHLANDS      MOSUNNY   86  61  42 W7        30.02S
ROCKY MOUNT    SUNNY     83  55  38 N7        30.03F
WASHINGTON     PTSUNNY  N/A N/A N/A NW6       30.02S
WHITEVILLE     PTSUNNY   84  62  47 CALM      30.02S

$$

AMZ130-135-150-152-154-156-158-170-250-252-270-ANZ085-086-088-633-658-670-272000-
MARINE OBSERVATIONS

STATION/POSITION TIME  TEMP    WIND        PRES    WAVE   SWELL
                       AIR SEA DIR/SP/G            HT/PER HT/PER
                 (UTC) (F)     (DEG/KT/KT) (MB)    (FT/S) (FT/S)
CHESAPEAKE LIGHT NOT AVBL
64 E VA BEACH    1850   75 76  280/  2/  4 1016.7    1/ 8   2/ 8
DUCK             1842   74 71   40/ 10/ 10 1015.6
2 E DUCK         NOT AVBL
OREGON INLET     1848          120/  6/ 10   N/A
13E OREGON INLT  1848      80                N/A     1/ 7   2/ 7
HATTERAS CG      1842   82 78  280/  3/  4 1016.5
DIAMOND BUOY     1850   80 82   CALM  /  2 1016.6    2/ 6   2/ 6
CAPE LOOKOUT     1900   80     220/  4/  5 1016.2
BEAUFORT LAB     1842   81 79  210/  5/  8 1015.8
30 SE NEW RVR IN NOT AVBL
30 SE NEW RVR IN 1843      84                N/A     2/ 8
27 SE WRIGHTSVLE NOT AVBL
5 SE WRIGHTSVLE  1808   80 80  160/  6/  6 1016.7
225 S CAPE HAT   1850   77 80  280/  8/  8 1017.0    3/ 6   3/ 6
41 SE CHARLESTON 1840   80 81   50/  8/ 12 1016.5

$$




USA.gov is the U.S. government's official web portal to all federal, state and local government web resources and services.